Location: ?????
(56.4806°N, 29.5981°E)
Time: 05:31:36
(UTC+00:00)

Daily predictions for brighter satellites

Satellite Brightness Start Highest point End
(mag) Time Altitude Azimuth Time Altitude Azimuth Time Altitude Azimuth
Cosmos 2219 3.9 00:00:01 10° NW 00:05:08 36° WSW 00:10:13 10° S
STARLINK-1243 4.0 00:04:19 10° W 00:08:14 41° SSW 00:12:08 10° SE
Cosmos 1980 Rocket 4.1 00:04:45 10° SSE 00:08:56 22° ESE 00:13:10 10° NE
Cosmos 1763 Rocket 4.2 00:05:11 10° S 00:10:03 47° ESE 00:14:56 10° NE
ERS-2 3.4 00:07:20 10° SE 00:10:50 43° ENE 00:14:20 10° N
STARLINK-1236 4.1 00:09:19 10° W 00:13:12 39° SSW 00:17:05 10° SE
GP-B 3.1 00:11:50 10° N 00:16:19 85° W 00:20:45 10° S
Cosmos 2297 Rocket 2.9 00:12:28 10° NW 00:17:34 35° WSW 00:22:37 10° S
SL-16 R/B 3.0 00:14:26 10° SSW 00:20:15 43° W 00:26:08 10° NNW
UNK 4.5 00:16:26 10° SSW 00:20:41 36° W 00:24:56 10° NNW
Cosmos 2150 Rocket 4.5 00:15:41 10° NNW 00:20:55 67° ENE 00:26:04 10° SE
Lacrosse 4 Rocket 1.5 00:17:29 10° NW 00:21:50 60° SW 00:26:01 10° SSE
STARLINK-1269 4.2 00:19:15 10° W 00:23:05 37° SSW 00:26:54 10° SE
Cosmos 2082 3.9 00:17:39 10° NW 00:23:11 55° WSW 00:28:40 10° SSE
Cosmos 1745 Rocket 4.4 00:19:10 10° SW 00:25:06 50° WNW 00:31:05 10° N
STARLINK-60 3.4 00:22:11 10° WSW 00:25:13 41° S 00:28:17 10° E
COSMOS 2455 3.5 00:20:40 10° WSW 00:26:34 55° NW 00:32:31 10° NE
STARLINK-1200 4.2 00:24:15 10° W 00:28:03 36° SSW 00:31:51 10° SE
ARIANE 5 R/B 3.7 00:23:50 10° NNE 00:28:37 39° E 00:33:18 10° SSE
Cosmos 2263 Rocket 2.8 00:24:44 10° NNW 00:30:21 63° NE 00:35:55 10° SE
Cosmos 2181 Rocket 4.2 00:24:22 10° NNW 00:30:41 63° W 00:37:02 10° S
